STARLINK-2568, 48406

Orbit data source: Space-Track

STARLINK-2568, 48406 is a payload satellite owned by SpaceX/Seattle (US) in LEO that was launched on Tue, 04 May 2021 UTC via an FALCON 9 launch vehicle from the Air Force Eastern Test Range (AFETR). Payload-class satellites include a variety of spacecraft equipped with specific instruments for various scientific and technological missions. These include communications satellites like Starlink; space stations such as the ISS; scientific satellites like the Hubble; Earth observation satellites from companies like Planet Labs, Umbra, and HawkEye 360; GPS; miniature CubeSats for education and research; and military/defense satellites.

Loading next visibility...
Identifier
48406, 2021-038BF
Orbit
LEO
Country
Flag of USUS
Related business
Manufacturer
SpaceX/Seattle
Mission
Operational Commercial Communications
Bus & Motor
STARLINK, Unknown motor
Mass
260 kg wet, ~248 kg dry
Launch date (UTC)
2021-05-04 (5 years ago)
Launch vehicle
FALCON 9
Launch site
Air Force Eastern Test Range (AFETR)
Object type
Payload
Rocket body
Debris
Shape & HBR
Box + 1 Pan, 10.1 m
Radar Cross Section
13.562 m², Large (>1 m²)

Expand to show TLE details & history
Last TLE update: 2 days ago

TLE from 2 days ago
0 STARLINK-2568
1 48406U 21038BF  26171.40553029  .00000652  00000-0  32772-4 0  9999
2 48406  53.1596 217.9905 0001205  80.1152 279.9986 15.31703224283136
Epoch: 2026-06-20T09:43Z
TLE epoch observation values (Epoch: 2026-06-20T09:43:57.817Z)
Latitude
0.00005°
Longitude
163.37901°
Altitude
471.487 km
Speed
7.632 km/s
True Right ascension
14h 31m 57s
True Declination
0° 00' 00"
Sunlit
Object was in full shadow at epoch
Visualization orbit readout
Latitude
Unknown
Longitude
Unknown
Altitude
Unknown
Speed
Unknown
Apparent Right ascension
Unknown
Apparent Declination
Unknown
Sunlit
N/A
Visualization observer readout
Local Sidereal Time
21:28:52
Azimuth
Unknown
Elevation
Unknown
Doppler factor
Unknown
Orbital elements
Apogee altitude
471.812 km
Perigee altitude
470.162 km
Semi-major axis
6,849.124 km
Eccentricity
0.00012
Inclination
53.1596°
RAAN
217.9905°
Arg. of periapsis
80.1152°
True anomaly
279.985°
Mean anomaly
279.9986°
Eccentric anomaly
279.9918°
Mean motion
3.82905 °/min
Orbital period
94.02 mins
BSTAR
0.000032772
Loading maneuver chart data...
Computing Atmospheric mass density...

Documentation

Showing up to 5 results
|